Location: Izdebno
(52.6670°N, 16.2170°E)
Time: 04:45:49
(UTC+02:00)

Transit 2A - Pass Details

Date: 01 March 2024
Orbit: 596 x 956 km, 66.7° (Epoch: 21 April)

Event Time Altitude Azimuth Distance (km) Brightness Sun altitude
Rises 01:24:30 0° 321° (NW) 2,942 - -42.1°
Reaches altitude 10° 01:26:52 10° 330° (NNW) 2,071 - -42.0°
Maximum altitude 01:31:12 36° 38° (NE) 1,093 - -41.7°
Drops below altitude 10° 01:35:55 10° 105° (ESE) 2,258 - -41.3°
Sets 01:38:36 0° 114° (ESE) 3,245 - -41.1°
